Weather in Beregovoy

Russia / Samara Oblast     53°35′17″N   48°29′30″E
temp.,
°C
wind,
m/s
gust,
m/s
humid.,
%
clouds,
%
prec.,
mm/h
press.,
hPa
HPBL,
m
25 february, thu
thu2501:00−25wnw239392 0.0 103733
04:00−25w119096 0.0 103620
07:00−23s1286100 0.0 103420
10:00−20s3586100 0.0 1032238
13:00−17s6995100 0.1 1029359
16:00−16s71195100 0.8 1026511
19:00−16s71295100 1.1 1022603
22:00−14s71295100 2.5 1020556
26 february, fri
fri2601:00−13s61195100 0.9 1017449
04:00−12s5995100 1.4 1016337
07:00−12s379596 0.4 1014198
10:00−10s359593 0.4 1014227
13:00−6sse4595100 0.2 1012242
16:00−4sse589699 0.6 1010284
19:00−4sse5996100 1.0 1007224
22:00+1ssw611100100 3.6 1002308
27 february, sat
sat2701:00+2wsw71599100 3.3 998519
04:00+2w71490100 3.4 998638
07:00+1w61390100 0.1 998657
10:000wsw5129093 0.1 999777
13:00+1wsw51010095 0.1 998601
16:00+1wsw5109395 0.1 998622
19:00−2wsw4109286 0.0 998238
22:00−1wsw5109792 0.4 999458
28 february, sun
sun2801:00−6nnw6992100 0.3 999312
04:00−11nnw51190100 0.3 1002455
07:00−14nnw6119198 0.0 1004406
10:00−14nnw7119094 0.0 1006450
13:00−12nnw61088100 0.0 1009553
16:00−11nnw61088100 0.0 1010613
19:00−14nnw41092100 0.0 1012396
22:00−16nnw4119287 0.0 1015370
1 march, mon
mon101:00−17nw379593 0.0 1017190
04:00−18nw499484 0.0 1018238
07:00−19nw4109475 0.0 1020272
10:00−17nnw589284 0.0 1022380
13:00−14nnw588991 0.0 1023456
16:00−13nnw588891 0.0 1023447
19:00−17nnw339118 0.0 102447
22:00−18wnw239623 0.0 102521